OpenBCM V1.13 (Linux)

Packet Radio Mailbox

DB0FHN

[JN59NK Nuernberg]

 Login: GUEST





  
NC8Q   > KEPLER   17.07.24 16:35l 68 Lines 2857 Bytes #999 (0) @ WW
BID : ARLK051
Read: DJ6UX GUEST
Subj: ARLK051 Keplerian data
Path: DB0FHN<DB0BLO<DB0ERF<OK0NAG<OK0PBR<OK2PEN<GB7CIP<CT7AXA<CT1EBQ<K4WOF<
      KD4WLE<NC8Q
Sent: 240717/1121Z 24757@NC8Q.#DAY.OH.USA.NOAM LinBPQ6.0.24

 
ZCZC SK51
QST de W1AW
Keplerian Bulletin 51 ARLK051
From ARRL Headquarters
Newington, CT July 16, 2024
To all radio amateurs
 
SB KEP ARL ARLK051
ARLK051 Keplerian data
 
Special thanks to AMSAT-NA (AMSAT.ORG) for the following Keplerian data.
 
Decode 2-line elsets with the following key:
1 AAAAAU 00 0 0 BBBBB.BBBBBBBB .CCCCCCCC 00000-0 00000-0 0 DDDZ
2 AAAAA EEE.EEEE FFF.FFFF GGGGGGG HHH.HHHH III.IIII JJ.JJJJJJJJKKKKKZ
KEY: A-CATALOGNUM B-EPOCHTIME C-DECAY D-ELSETNUM E-INCLINATION F-RAAN
G-ECCENTRICITY H-ARGPERIGEE I-MNANOM J-MNMOTION K-ORBITNUM Z-CHECKSUM
 
0 AO-7
1 07530U 74089B 24198.60700833 -.00000029 00000-0 11129-3 0 9993
2 07530 101.9787 193.5311 0012464 29.8314 92.4983 12.53676896272725
0 ISS
1 25544U 98067A 24198.43697036 .00015997 00000-0 28820-3 0 9996
2 25544 51.6395 170.4296 0010551 71.7559 70.6267 15.49904252463086
0 SO-50
1 27607U 02058C 24198.20650513 .00002811 00000-0 39484-3 0 9996
2 27607 64.5549 132.3410 0025644 97.0931 263.3090 14.79146266160614
0 AO-73
1 39444U 13066AE 24198.44711989 .00011690 00000-0 11143-2 0 9996
2 39444 97.7202 156.9660 0049111 45.8700 314.6542 14.92591317574470
0 IO-86
1 40931U 15052B 24180.14795698 .00001574 00000-0 12542-3 0 9998
2 40931 5.9997 274.4192 0013395 238.9714 120.9097 14.77898591473081
0 AO-91
1 43017U 17073E 24198.59779205 .00010930 00000-0 67060-3 0 9996
2 43017 97.5742 73.0565 0208465 194.8627 164.6407 14.93911116360057
0 PO-101
1 43678U 18084H 24198.58285210 .00002963 00000-0 27344-3 0 9997
2 43678 98.0740 357.4380 0007738 296.9034 63.1394 14.95441674311316
0 QO-100
1 43700U 18090A 24198.57119141 .00000162 00000-0 00000-0 0 9994
2 43700 0.0184 48.8628 0002233 102.7991 14.6440 1.00271543 20659
0 JO-97
1 43803U 18099AX 24198.10351356 .00011369 00000-0 74196-3 0 9993
2 43803 97.5194 256.1382 0009771 194.9345 165.1596 15.07981871307056
0 RS-44
1 44909U 19096E 24198.19504590 .00000009 00000-0 -37501-5 0 9999
2 44909 82.5206 85.5032 0217341 343.7029 15.7156 12.79731392212688
0 TEVEL 3
1 50988U 22002E 24198.47648765 .00530822 00000-0 22158-2 0 9997
2 50988 97.3686 276.1692 0008262 239.2345 120.8111 15.84304289139663
0 TEVEL 6
1 50999U 22002R 24198.47720887 .02228537 54758-2 22209-2 0 9992
2 50999 97.3520 278.2035 0013396 259.1861 100.7916 16.12405451139805
0 IO-117
1 53106U 22080B 24198.22903495 -.00000003 00000-0 00000-0 0 9999
2 53106 70.1332 182.4315 0007583 100.7878 259.3635 6.42557627 47133
0 FO-118
1 54684U 22167C 24198.61065540 .00039585 00000-0 12781-2 0 9997
2 54684 97.6075 344.1773 0009528 46.1450 314.0577 15.31970717 88808
0 HADES-D
1 58567U 23174CY 24198.20111599 .00075607 00000-0 23455-2 0 9996
2 58567 97.4519 274.0802 0012300 131.1602 229.0703 15.33039383 38227
 
Keplerian bulletins are transmitted twice weekly from W1AW. The next scheduled transmission of these data will be Friday, July 19, 2024, at 2230z on Baudot and BPSK31.
NNNN


Read previous mail | Read next mail


 13.06.2026 16:17:07lGo back Go up